| time (UTC) | temp F | wind direction | speed knots | gust knots | rain 1hr in | rain 24hr in | rain mn in | humidity % | barometer mb |
| 20260504004542 | 75 | 221 | 6.1 | 13.0 | 0.00 | 0.00 | 0.00 | 25 | 1007.5 |
| 20260504003032 | 76 | 186 | 5.2 | 12.2 | 0.00 | 0.00 | 0.00 | 25 | 1007.7 |
| 20260504001532 | 76 | 203 | 6.1 | 11.3 | 0.00 | 0.00 | 0.00 | 26 | 1007.7 |
| 20260504000030 | 77 | 212 | 6.1 | 13.9 | 0.00 | 0.00 | 0.00 | 25 | 1007.8 |
| 20260503234530 | 77 | 198 | 7.0 | 14.8 | 0.00 | 0.00 | 0.00 | 25 | 1007.8 |
| 20260503233031 | 78 | 206 | 6.1 | 15.6 | 0.00 | 0.00 | 0.00 | 25 | 1007.9 |
| 20260503231528 | 78 | 218 | 8.7 | 16.5 | 0.00 | 0.00 | 0.00 | 25 | 1007.8 |
| 20260503230032 | 79 | 136 | 6.1 | 10.4 | 0.00 | 0.00 | 0.00 | 22 | 1007.9 |
| 20260503224525 | 79 | 231 | 7.0 | 14.8 | 0.00 | 0.00 | 0.00 | 21 | 1008.2 |
| 20260503223023 | 79 | 193 | 6.1 | 11.3 | 0.00 | 0.00 | 0.00 | 21 | 1008.4 |
| 20260503221519 | 79 | 215 | 8.7 | 13.9 | 0.00 | 0.00 | 0.00 | 20 | 1008.8 |
| 20260503220018 | 79 | 196 | 3.5 | 13.9 | 0.00 | 0.00 | 0.00 | 22 | 1009.0 |
| 20260503214516 | 79 | 212 | 7.8 | 14.8 | 0.00 | 0.00 | 0.00 | 23 | 1009.5 |
| 20260503213113 | 78 | 214 | 6.1 | 14.8 | 0.00 | 0.00 | 0.00 | 22 | 1009.8 |
| 20260503211606 | 78 | 269 | 8.7 | 14.8 | 0.00 | 0.00 | 0.00 | 22 | 1010.2 |
| 20260503210057 | 80 | 190 | 7.8 | 18.2 | 0.00 | 0.00 | 0.00 | 21 | 1010.5 |
| 20260503204556 | 79 | 183 | 6.1 | 13.9 | 0.00 | 0.00 | 0.00 | 21 | 1010.6 |
| 20260503203052 | 78 | 212 | 7.0 | 15.6 | 0.00 | 0.00 | 0.00 | 22 | 1011.1 |
| 20260503201549 | 79 | 194 | 6.1 | 16.5 | 0.00 | 0.00 | 0.00 | 23 | 1011.5 |
| 20260503200049 | 78 | 230 | 6.1 | 13.9 | 0.00 | 0.00 | 0.00 | 22 | 1011.8 |
| 20260503194549 | 77 | 226 | 7.0 | 13.9 | 0.00 | 0.00 | 0.00 | 23 | 1012.1 |
| 20260503193043 | 76 | 168 | 6.1 | 13.9 | 0.00 | 0.00 | 0.00 | 26 | 1012.3 |
| 20260503191540 | 76 | 179 | 5.2 | 12.2 | 0.00 | 0.00 | 0.00 | 25 | 1012.5 |
| 20260503190042 | 75 | 214 | 7.0 | 13.9 | 0.00 | 0.00 | 0.00 | 25 | 1013.0 |
| 20260503184537 | 75 | 211 | 5.2 | 15.6 | 0.00 | 0.00 | 0.00 | 26 | 1013.2 |
| 20260503183033 | 75 | 231 | 7.8 | 17.4 | 0.00 | 0.00 | 0.00 | 26 | 1013.6 |
| 20260503181533 | 75 | 224 | 7.8 | 16.5 | 0.00 | 0.00 | 0.00 | 27 | 1013.9 |
| 20260503180026 | 74 | 181 | 5.2 | 14.8 | 0.00 | 0.00 | 0.00 | 29 | 1014.1 |
| 20260503174527 | 74 | 179 | 6.1 | 13.0 | 0.00 | 0.00 | 0.00 | 29 | 1014.4 |
| 20260503173022 | 74 | 274 | 8.7 | 14.8 | 0.00 | 0.00 | 0.00 | 29 | 1014.8 |
| 20260503171517 | 72 | 117 | 6.1 | 13.9 | 0.00 | 0.00 | 0.00 | 31 | 1015.1 |
| 20260503081547 | 49 | 219 | 4.3 | 10.4 | 0.00 | 0.01 | 0.00 | 60 | 1017.7 |
| 20260503071540 | 50 | 217 | 4.3 | 8.7 | 0.00 | 0.01 | 0.00 | 51 | 1018.2 |
| 20260503054528 | 52 | 222 | 2.6 | 4.3 | 0.00 | 0.01 | 0.00 | 41 | 1018.1 |
| 20260503053016 | 53 | 217 | 0.9 | 4.3 | 0.00 | 0.01 | 0.00 | 40 | 1018.1 |
| 20260503051514 | 54 | 212 | 1.7 | 5.2 | 0.00 | 0.01 | 0.00 | 40 | 1018.3 |
| 20260503050014 | 52 | 202 | 0.9 | 3.5 | 0.00 | 0.01 | 0.00 | 41 | 1018.2 |
| 20260503044513 | 53 | 221 | 0.9 | 3.5 | 0.00 | 0.01 | 0.01 | 39 | 1018.2 |
| 20260503043008 | 53 | 213 | 0.0 | 1.7 | 0.00 | 0.01 | 0.01 | 38 | 1018.1 |
| 20260503041509 | 54 | 231 | 0.9 | 3.5 | 0.00 | 0.01 | 0.01 | 36 | 1018.2 |
| 20260503040008 | 54 | 274 | 0.9 | 2.6 | 0.00 | 0.01 | 0.01 | 37 | 1018.2 |
| 20260503034508 | 54 | 274 | 0.0 | 0.9 | 0.00 | 0.01 | 0.01 | 36 | 1018.2 |
| 20260503033014 | 54 | 274 | 0.0 | 0.0 | 0.00 | 0.01 | 0.01 | 36 | 1018.1 |
| 20260503031507 | 55 | 274 | 0.0 | 0.9 | 0.00 | 0.01 | 0.01 | 35 | 1017.9 |
| 20260503030007 | 56 | 274 | 0.0 | 0.0 | 0.00 | 0.01 | 0.01 | 34 | 1017.7 |
| 20260503024506 | 55 | 274 | 0.0 | 0.0 | 0.00 | 0.01 | 0.01 | 35 | 1017.6 |
| 20260503023004 | 56 | 274 | 0.0 | 0.0 | 0.00 | 0.01 | 0.01 | 34 | 1017.5 |
| 20260503021504 | 57 | 274 | 0.0 | 0.0 | 0.00 | 0.01 | 0.01 | 32 | 1017.5 |
| 20260503020003 | 59 | 274 | 0.0 | 0.0 | 0.00 | 0.01 | 0.01 | 28 | 1017.3 |
| 20260503014503 | 63 | 274 | 0.0 | 0.0 | 0.00 | 0.01 | 0.01 | 27 | 1017.2 |
| 20260503013002 | 65 | 274 | 0.9 | 1.7 | 0.00 | 0.01 | 0.01 | 25 | 1017.1 |
| 20260503011503 | 68 | 275 | 0.0 | 3.5 | 0.00 | 0.01 | 0.01 | 22 | 1016.9 |
| 20260503010003 | 71 | 275 | 1.7 | 5.2 | 0.00 | 0.01 | 0.01 | 21 | 1017.0 |